Location: Borovka
(49.7741°N, 14.5280°E)
Time: 17:47:56
(UTC+00:00)

Cosmos 407 Rocket - Pass Details

Date: 17 November 2025
Orbit: 740 x 780 km, 74.0° (Epoch: 10 December)

Event Time Altitude Azimuth Distance (km) Brightness Sun altitude
Rises 17:02:56 0° 207° (SSW) 3,206 7.3 -17.0°
Reaches altitude 10° 17:05:18 10° 209° (SSW) 2,279 6.5 -17.4°
Maximum altitude 17:10:28 74° 295° (WNW) 784 3.6 -18.2°
Enters shadow 17:15:21 12° 21° (NNE) 2,166 5.6 -19.0°
